Weather History for Minot, ND

Change the Weather History Date:

Friday, August 30, 2013

  Actual Average Record
Temperature  
Mean Temperature 77 °F 65 °F  
Max Temperature 89 °F 77 °F 99 °F (1929)
Min Temperature 64 °F 52 °F 34 °F (1935)
Cooling Degree Days 12 3  
Month to date cooling degree days 169 149  
Year to date cooling degree days 366 407  
Since 1 June cooling degree days 356 391  
Growing Degree Days 26 (Base 50)    
Moisture  
Dew Point 64 °F    
Average Humidity 68    
Maximum Humidity 93    
Minimum Humidity 43    
Precipitation  
Precipitation 0.00 in 0.06 in 0.85 in (2002)
Month to date precipitation 2.77 1.98  
Year to date precipitation 20.18 13.38  
Sea Level Pressure  
Sea Level Pressure 29.90 in    
Wind  
Wind Speed 8 mph (SSE)    
Max Wind Speed 20 mph    
Max Gust Speed 25 mph    
Visibility 9 miles    
Events      
T = Trace of Precipitation, MM = Missing Value Source: NWS Daily Summary

Daily Weather History Graph

Daily Weather History Graph

Search for Another Location

Airport:

Trip Planner

Search our weather history database for the weather conditions in past years. The results will help you decide how hot, cold, wet, or windy it might be!

Date:

Astronomy

Aug. 30, 2013 Rise Set
Actual Time 7:00 AM CDT 8:29 PM CDT
Civil Twilight 6:27 AM CDT 9:02 PM CDT
Nautical Twilight 5:48 AM CDT 9:41 PM CDT
Astronomical Twilight 5:05 AM CDT 10:24 PM CDT
Moon 1:26 AM CDT (8/30) 5:00 PM CDT (8/30)
Length of Visible Light 14h 34m
Length of Day
13h 29m
Waning Crescent, 29% of the Moon is Illuminated
Aug 30
Waning Crescent
Sep 5
New
Sep 12
First Quarter
Sep 19
Full
Sep 26
Last Quarter

Hourly Weather History & Observations

Time (CDT) Temp. Heat Index Dew Point Humidity Pressure Visibility Wind Dir Wind Speed Gust Speed Precip Events Conditions
12:54 AM 68.0 °F - 64.9 °F 90% 29.98 in 10.0 mi Calm Calm - N/A   Clear
1:54 AM 66.9 °F - 64.9 °F 93% 29.99 in 8.0 mi Calm Calm - N/A   Clear
2:54 AM 68.0 °F - 66.0 °F 93% 29.97 in 9.0 mi South 3.5 mph - N/A   Clear
3:44 AM 64.4 °F - 62.6 °F 94% 29.99 in 2.5 mi ESE 3.5 mph - N/A   Clear
3:51 AM 64.4 °F - 62.6 °F 94% 29.99 in 7.0 mi Calm Calm - N/A   Clear
3:54 AM 64.9 °F - 63.0 °F 93% 29.98 in 8.0 mi Calm Calm - N/A   Clear
4:54 AM 64.9 °F - 63.0 °F 93% 29.97 in 10.0 mi SE 4.6 mph - N/A   Clear
5:54 AM 66.0 °F - 63.0 °F 90% 29.97 in 10.0 mi South 3.5 mph - N/A   Clear
6:54 AM 64.9 °F - 62.1 °F 90% 29.96 in 10.0 mi South 3.5 mph - N/A   Clear
7:54 AM 66.9 °F - 64.0 °F 90% 29.97 in 10.0 mi SE 4.6 mph - N/A   Clear
8:54 AM 71.1 °F - 66.0 °F 84% 29.98 in 10.0 mi South 5.8 mph - N/A   Clear
9:54 AM 75.9 °F - 66.9 °F 74% 29.97 in 10.0 mi South 9.2 mph - N/A   Clear
10:54 AM 79.0 °F - 66.9 °F 66% 29.95 in 10.0 mi South 12.7 mph - N/A   Clear
11:54 AM 82.0 °F 84.5 °F 66.9 °F 60% 29.94 in 10.0 mi South 13.8 mph - N/A   Clear
12:54 PM 84.0 °F 85.8 °F 64.9 °F 53% 29.92 in 10.0 mi SSW 10.4 mph - N/A   Clear
1:54 PM 86.0 °F 87.6 °F 64.9 °F 49% 29.90 in 10.0 mi South 12.7 mph 21.9 mph N/A   Clear
2:54 PM 87.1 °F 88.9 °F 64.9 °F 48% 29.87 in 10.0 mi SSE 10.4 mph - N/A   Clear
3:54 PM 89.1 °F 91.3 °F 66.0 °F 46% 29.85 in 10.0 mi South 10.4 mph 17.3 mph N/A   Clear
4:54 PM 87.1 °F 87.8 °F 63.0 °F 44% 29.82 in 10.0 mi South 10.4 mph - N/A   Clear
5:54 PM 88.0 °F 88.7 °F 63.0 °F 43% 29.79 in 10.0 mi South 11.5 mph - N/A   Clear
6:54 PM 88.0 °F 89.3 °F 64.0 °F 45% 29.78 in 10.0 mi SSE 10.4 mph - N/A   Clear
7:54 PM 82.9 °F 85.0 °F 66.0 °F 56% 29.76 in 10.0 mi SE 4.6 mph - N/A   Clear
8:54 PM 79.0 °F - 64.0 °F 60% 29.79 in 10.0 mi SSE 13.8 mph - N/A   Mostly Cloudy
9:54 PM 78.1 °F - 64.0 °F 62% 29.76 in 10.0 mi SSW 12.7 mph 18.4 mph N/A   Clear
10:54 PM 75.9 °F - 62.1 °F 62% 29.76 in 10.0 mi SSW 8.1 mph - N/A   Clear
11:54 PM 72.0 °F - 62.1 °F 71% 29.76 in 10.0 mi SE 5.8 mph - N/A   Clear